Regional Weather Roundup
Issued by NWS

Home | Current Version | Previous Version | Graphics & Text | Print | Product List | Glossary On
Versions: 1 2 3 4 5 6 7 8 9 10 11 12 13 14 15 16 17 18 19 20 21 22 23 24 25 26 27 28 29 30 31 32 33 34 35 36 37 38 39 40 41 42 43 44 45 46 47 48 49 50
162
ASUS44 KMEG 261510
RWRTN
TENNESSEE HOURLY STATE WEATHER ROUNDUP
NATIONAL WEATHER SERVICE MEMPHIS TN
1000 AM CDT MON SEP 26 2016

TNZ002-004-019-021-049-052-054-088>092-261600-
WEST TENNESSEE

CITY           SKY/WX    TMP DP  RH WIND       PRES   REMARKS
MEMPHIS INTL   PTSUNNY   71  59  65 NE20G26   30.13R
NWS MEMPHIS      N/A     68 N/A N/A MISG        N/A
JACKSON        CLOUDY   N/A N/A N/A N17       30.14R
DYERSBURG      CLOUDY   N/A N/A N/A MISG      30.11
UNION CITY     MOSUNNY   64  63  94 N13       30.14S
PARIS          PTSUNNY   59  57  94 N10       30.14S
HUNTINGDON       N/A     63  61  94 VRB3      30.14R
LEXINGTON      SUNNY     68  61  77 N9        30.12R
$$

TNZ008-025-027-028-033-062-065-066-261600-
NORTH MIDDLE TENNESSEE

CITY           SKY/WX    TMP DP  RH WIND       PRES   REMARKS
NASHVILLE      PTSUNNY   73  59  61 N14G22    30.11R
PORTLAND       PTSUNNY   70  61  73 N13G20    30.12R
CLARKSVILLE    TSTM      60  57  89 N6        30.17R FOG
SMYRNA         CLOUDY    73  66  78 N12       30.10R
COOKEVILLE     SUNNY     82  68  61 W8        30.08R
GALLATIN       PTSUNNY   72  63  73 N7G14     30.13R
CROSSVILLE     PTSUNNY   76  63  64 SW10      30.12R
$$

TNZ061-075-076-078-094-096-097-261600-
SOUTH MIDDLE TENNESSEE

CITY           SKY/WX    TMP DP  RH WIND       PRES   REMARKS
FAYETTEVILLE   SUNNY     75  66  73 CALM      30.09R
TULLAHOMA      MOSUNNY   81  64  57 W8        30.10R
WINCHESTER     CLOUDY    73  68  83 S3        30.09R
MCMINNVILLE    SUNNY     82  66  57 VRB5      30.08R
COLUMBIA       CLOUDY   N/A N/A N/A N9        30.09R
SHELBYVILLE    SUNNY     81  68  65 N14       30.10R
$$

TNZ017-018-042-046-047-261600-
NORTHEAST TENNESSEE

CITY           SKY/WX    TMP DP  RH WIND       PRES   REMARKS
TRI CITIES     MOSUNNY   79  66  64 W3        30.10S
ELIZABETHTON   MOSUNNY   81  64  57 W3        30.10S
$$

TNZ012-013-036-069-073-074-261600-
CENTRAL EAST TENNESSEE

CITY           SKY/WX    TMP DP  RH WIND       PRES   REMARKS
KNOXVILLE      PTSUNNY   83  64  52 SW16      30.07R
OAK RIDGE      MOSUNNY   77  64  64 VRB5      30.10R
DOWNTOWN KNOXV MOSUNNY   82  68  61 SW6       30.08R
GATLINBURG     PTSUNNY   81  63  54 VRB3      30.08R
MORRISTOWN     PTSUNNY   79  64  61 W8        30.09S
JACKSBORO      PTSUNNY   81  64  57 W8        30.10S
$$

TNZ083-085-099-261600-
SOUTHEAST TENNESSEE

CITY           SKY/WX    TMP DP  RH WIND       PRES   REMARKS
CHATTANOOGA    PTSUNNY   82  65  56 S7        30.08S
$$

SKY/WX REPORTED AS FAIR MEANS FEW OR NO CLOUDS BELOW
12 THOUSAND FEET.





USA.gov is the U.S. government's official web portal to all federal, state and local government web resources and services.